Wind_Speed
15 16 16 16 16 16 16 17 17 17 17 18 18 18 19 19 20 21 21 21 22 22 22 21 21 20 20 20 20 20 20 20 20 21 21 21 21 21 21 21 21 22 21
16 16 17 17 18 18 18 19 19 19 19 19 19 20 20 21 21 21 22 22 22 22 21 21 21 21 21 21 21 21 21 22 22 22 22 23 23 22 22 22 21 21 21
17 17 17 18 18 18 19 20 20 21 21 20 20 21 21 22 22 23 23 22 22 22 22 22 22 23 23 22 22 23 23 23 23 23 24 24 24 24 23 23 23 24 24
19 18 19 18 18 18 19 20 20 21 21 21 22 22 22 22 23 23 23 23 23 22 23 23 23 24 24 24 23 24 24 24 25 25 25 24 25 25 25 25 25 26 26
20 20 19 19 19 20 20 20 21 21 21 22 23 23 24 24 24 23 24 24 24 23 24 24 24 25 25 25 25 25 25 25 26 25 25 25 25 26 26 27 27 27 26
21 21 21 21 20 21 21 22 22 22 22 23 24 24 24 24 24 24 24 24 24 24 25 25 25 26 26 26 26 26 26 27 27 27 27 27 27 28 28 29 28 27 27
23 23 22 22 21 21 22 22 23 23 24 24 24 24 25 25 25 25 25 25 24 24 25 26 26 27 27 27 27 27 27 28 28 28 28 28 29 29 29 29 29 28 28
23 23 23 22 22 22 22 23 23 24 24 25 25 25 25 26 26 26 26 26 26 25 25 26 26 27 27 27 27 27 28 28 29 30 29 29 29 30 30 29 29 29 29
24 24 23 23 23 23 24 24 24 24 25 25 26 26 26 25 25 25 25 25 25 25 25 25 26 27 27 28 28 28 28 29 29 29 29 29 29 30 30 30 30 30 29
25 24 24 24 25 25 25 25 26 26 25 26 26 26 25 25 25 25 25 25 25 25 25 25 26 27 27 26 27 27 28 29 29 29 29 29 29 29 30 30 30 30 29
24 24 25 25 25 25 26 26 26 26 26 26 26 26 26 25 25 25 25 25 25 25 25 26 26 26 26 25 25 26 26 27 28 28 29 29 30 30 30 30 30 30 30
24 25 25 25 25 25 26 27 26 27 27 26 26 27 27 26 27 27 27 26 26 26 26 26 26 27 27 26 26 26 27 28 28 28 28 28 29 29 29 29 30 30 30
25 25 25 25 24 25 25 26 26 26 26 26 26 26 27 28 28 28 28 27 27 27 27 27 26 27 27 27 27 27 28 28 29 29 29 28 28 28 29 30 30 30 30
24 24 25 25 25 26 26 26 26 26 27 27 27 27 27 27 27 27 28 28 28 28 27 27 27 27 28 28 28 28 28 28 28 28 28 28 28 28 28 28 28 29 29
23 23 24 24 24 25 25 25 26 26 26 26 26 27 26 26 26 26 27 27 27 27 28 28 28 28 28 28 27 27 27 26 27 27 27 27 27 27 27 27 27 28 27
23 23 24 24 25 24 25 25 26 26 25 26 26 26 26 26 26 25 26 26 27 27 27 27 28 28 28 27 27 26 26 26 26 26 26 27 26 27 27 26 26 26 25
25 25 26 25 25 25 26 26 26 25 24 24 25 24 24 24 24 24 24 25 26 26 27 27 27 27 26 26 26 26 26 26 26 26 26 26 26 26 26 26 26 25 25
26 26 26 26 26 25 25 25 25 24 24 23 23 22 22 22 22 23 24 24 25 25 25 25 25 25 25 25 25 26 26 25 25 25 25 25 26 26 26 25 25 25 25
27 26 27 27 26 25 25 25 24 24 25 24 22 22 22 22 22 22 22 23 23 23 23 23 24 24 25 25 25 25 25 24 24 25 25 25 25 25 24 24 24 24 24
27 26 26 27 27 26 25 24 24 24 24 24 23 22 22 22 22 22 22 22 21 21 21 22 22 22 22 23 24 24 24 24 24 25 25 25 25 24 24 24 24 24 25
27 26 27 27 27 27 26 25 24 23 23 23 22 21 21 21 21 21 21 21 21 20 20 21 21 21 21 21 23 23 23 23 24 24 25 25 25 24 24 25 25 25 25
24 25 27 27 26 26 26 25 24 23 23 22 21 21 20 20 20 20 20 20 20 19 19 19 19 20 20 20 21 22 22 22 23 23 24 23 23 24 25 25 25 25 25
25 25 25 25 26 26 25 24 24 24 23 22 21 20 19 19 20 20 20 19 19 19 18 19 19 19 20 20 21 21 21 22 22 22 22 23 23 23 24 24 24 24 24
24 24 24 24 24 24 24 24 23 23 23 22 20 19 19 18 19 19 19 19 19 19 19 19 19 19 19 19 20 20 20 21 21 21 21 21 21 22 22 22 22 22 22
24 25 25 25 25 24 24 24 23 23 23 22 21 20 19 19 19 19 19 20 21 21 20 20 19 18 18 17 18 18 19 19 20 20 20 20 20 20 20 20 21 21 21
23 23 24 24 25 24 23 22 22 23 23 22 22 21 20 20 20 20 21 21 21 21 20 19 19 19 19 18 18 18 18 19 19 19 20 20 20 20 20 20 21 21 21
Wind_Direction
290 288 285 282 281 279 279 281 281 280 278 277 276 276 278 279 280 280 280 279 278 278 278 278 280 280 281 281 283 281 279 279 279 281 284 285 287 287 288 290 289 285 281
288 289 287 283 281 280 279 279 280 279 279 280 279 278 278 279 280 281 281 280 280 278 277 276 278 277 277 280 281 281 281 281 280 279 282 283 285 285 286 287 288 285 282
288 287 288 285 281 280 280 278 277 278 279 280 279 279 279 280 280 281 282 281 279 278 277 277 277 277 277 278 279 280 281 281 280 279 282 282 283 284 285 286 287 284 282
285 285 285 284 282 281 282 281 279 279 279 279 279 279 280 281 281 281 281 281 279 278 277 277 277 278 277 278 279 280 280 280 281 282 282 284 283 283 285 286 286 284 280
284 282 283 281 280 281 282 283 282 281 281 280 280 279 280 280 280 281 279 278 278 277 277 277 278 279 279 277 278 279 279 280 281 282 283 283 283 284 284 284 284 283 280
284 281 281 282 281 280 281 283 283 282 282 282 282 279 279 279 279 280 278 277 278 278 279 279 279 279 278 277 278 277 278 279 280 281 282 283 283 283 283 283 282 280 279
284 281 279 281 280 279 279 281 282 282 282 281 282 281 279 279 279 279 279 277 277 279 280 280 279 278 278 277 278 278 279 280 280 281 281 282 281 281 281 282 281 279 279
283 282 280 279 280 279 280 281 282 282 282 282 282 281 280 279 278 277 277 278 278 279 280 281 281 281 281 280 279 278 279 280 281 281 282 281 281 279 278 279 280 279 279
283 282 280 279 277 277 279 281 282 283 282 283 283 281 279 278 276 276 277 277 277 280 281 282 283 283 282 280 280 280 279 280 282 283 282 281 280 278 278 277 278 279 278
282 280 279 277 277 277 279 279 280 281 282 283 282 280 279 277 275 275 277 278 278 280 281 281 283 284 284 281 281 282 281 281 282 283 283 281 280 280 278 278 278 278 277
282 281 279 278 278 278 278 279 280 281 280 281 280 278 277 276 275 276 277 277 278 280 281 281 282 284 283 282 283 283 283 281 281 281 281 281 281 281 280 278 278 278 277
282 281 279 279 279 279 279 279 280 280 281 281 281 278 276 275 274 275 276 278 279 280 281 283 283 284 282 282 282 282 283 283 282 282 282 282 281 280 279 278 277 276 277
280 281 280 279 281 282 282 281 280 280 280 282 283 281 278 276 275 274 275 276 276 278 280 283 282 284 284 282 283 283 284 285 285 283 283 284 283 282 282 280 278 277 277
282 281 280 279 280 282 281 281 282 282 281 282 283 283 281 278 276 274 274 274 275 277 279 281 282 283 283 284 284 284 285 284 284 284 284 285 285 284 285 283 281 279 277
282 283 282 282 283 283 282 284 286 285 285 284 282 281 280 278 275 275 274 274 275 278 281 283 283 284 284 284 284 285 286 285 285 285 285 286 286 285 284 284 284 280 278
281 282 283 283 283 284 284 287 288 286 285 284 283 281 279 278 277 277 277 277 278 280 282 283 284 285 284 283 285 285 286 287 286 286 286 286 287 287 286 285 285 282 281
281 282 282 282 282 282 284 286 287 288 287 285 285 284 282 280 279 279 280 279 279 280 281 282 283 285 285 284 284 285 284 285 285 286 286 286 287 288 288 288 287 284 283
281 281 281 280 279 280 281 284 286 285 287 287 286 284 282 280 281 284 283 282 282 281 281 282 283 285 286 285 284 285 284 284 285 286 286 286 288 288 289 288 287 286 285
280 279 279 278 277 278 282 284 287 289 288 288 288 285 282 280 283 286 286 285 283 281 283 284 284 286 286 284 284 285 285 284 285 286 286 287 288 289 289 289 288 287 285
278 277 277 278 280 281 282 284 286 288 289 288 287 285 282 280 282 284 285 285 286 284 285 286 287 288 288 286 285 286 286 286 286 287 288 288 289 289 290 290 289 287 285
279 279 279 280 281 280 281 282 284 287 287 287 286 284 284 283 282 284 286 287 288 288 287 288 289 288 288 288 288 287 288 290 289 289 290 289 288 289 290 291 290 288 286
280 281 281 280 281 281 280 280 282 285 287 285 284 284 286 284 283 286 288 290 293 294 291 289 288 289 290 290 290 289 290 291 292 292 292 290 289 289 290 292 291 289 287
283 283 284 284 281 279 280 280 281 282 283 283 285 284 283 283 285 288 292 293 294 295 294 292 289 289 289 289 289 289 290 292 294 294 293 293 291 291 291 292 291 289 288
285 285 284 284 284 283 281 280 281 283 282 282 283 285 284 284 285 288 290 291 292 292 292 292 291 288 288 288 288 290 292 293 295 297 296 296 296 295 295 294 293 292 290
286 285 284 284 286 286 284 282 283 284 283 282 282 284 285 285 285 286 288 290 291 292 290 289 290 290 289 289 291 294 297 300 300 300 300 301 301 300 298 297 296 295 293
290 287 285 285 287 288 287 285 285 285 284 283 282 282 282 283 282 283 286 289 291 292 291 288 286 288 289 290 293 295 297 300 301 301 302 302 300 299 298 298 299 298 296
Height
5870 5869 5868 5867 5866 5865 5864 5863 5862 5861 5860 5859 5859 5858 5857 5856 5856 5855 5854 5853 5852 5851 5851 5850 5849 5849 5848 5847 5846 5845 5844 5844 5843 5842 5841 5840 5838 5837 5836 5835 5833 5832 5832
5866 5865 5863 5862 5861 5860 5859 5858 5857 5856 5855 5854 5853 5853 5852 5851 5850 5849 5848 5847 5846 5845 5845 5844 5844 5843 5842 5841 5840 5840 5839 5838 5838 5837 5835 5834 5833 5831 5830 5829 5828 5827 5826
5861 5859 5858 5857 5856 5854 5853 5852 5851 5850 5850 5849 5848 5847 5846 5845 5844 5843 5842 5841 5840 5839 5839 5838 5838 5837 5836 5835 5835 5834 5833 5832 5831 5830 5829 5828 5827 5825 5824 5823 5822 5821 5820
5855 5854 5853 5851 5850 5849 5848 5846 5845 5844 5843 5843 5842 5841 5840 5839 5838 5837 5836 5835 5834 5833 5832 5831 5831 5830 5830 5829 5828 5828 5827 5826 5825 5824 5823 5821 5820 5819 5818 5816 5815 5814 5813
5849 5848 5847 5845 5844 5843 5842 5840 5839 5838 5837 5836 5835 5834 5833 5832 5831 5830 5829 5828 5827 5826 5825 5825 5824 5823 5823 5822 5821 5821 5820 5819 5818 5817 5816 5815 5814 5812 5811 5809 5808 5806 5805
5842 5841 5840 5839 5838 5836 5835 5834 5833 5831 5830 5829 5828 5827 5826 5825 5824 5823 5822 5821 5820 5819 5818 5818 5817 5816 5815 5814 5814 5813 5812 5811 5810 5809 5808 5807 5806 5804 5803 5801 5800 5799 5798
5836 5834 5833 5832 5831 5830 5829 5827 5826 5825 5823 5822 5821 5819 5818 5818 5817 5816 5814 5813 5813 5812 5811 5810 5809 5808 5808 5807 5806 5805 5804 5803 5803 5802 5800 5799 5798 5797 5795 5793 5792 5791 5790
5829 5828 5827 5826 5824 5823 5822 5820 5819 5817 5816 5814 5813 5812 5811 5810 5809 5808 5807 5806 5806 5805 5804 5803 5802 5801 5800 5799 5798 5797 5796 5795 5794 5793 5792 5791 5790 5788 5787 5785 5784 5783 5782
5822 5821 5820 5818 5817 5816 5815 5813 5811 5810 5808 5807 5805 5804 5803 5802 5801 5801 5800 5799 5798 5797 5796 5795 5794 5793 5792 5791 5790 5789 5788 5787 5786 5784 5783 5782 5781 5779 5778 5777 5776 5775 5774
5815 5813 5812 5811 5810 5809 5807 5805 5804 5802 5801 5799 5798 5796 5795 5795 5794 5793 5792 5791 5791 5790 5788 5788 5787 5786 5784 5783 5782 5781 5780 5779 5778 5776 5774 5773 5772 5771 5769 5768 5767 5766 5765
5807 5806 5805 5803 5802 5801 5799 5798 5796 5795 5793 5791 5790 5789 5788 5787 5786 5785 5784 5783 5783 5782 5781 5780 5779 5778 5777 5776 5774 5773 5772 5771 5769 5768 5766 5765 5763 5762 5761 5760 5758 5757 5757
5800 5799 5797 5796 5794 5793 5792 5790 5788 5787 5785 5783 5782 5781 5780 5779 5778 5777 5777 5776 5775 5774 5773 5772 5771 5770 5769 5768 5767 5765 5764 5763 5761 5759 5758 5756 5755 5753 5752 5751 5750 5749 5748
5793 5791 5790 5789 5787 5785 5784 5782 5780 5779 5777 5775 5774 5772 5771 5771 5770 5769 5769 5768 5767 5766 5765 5764 5763 5762 5761 5760 5759 5757 5756 5754 5753 5751 5750 5748 5747 5745 5744 5742 5741 5740 5739
5785 5784 5782 5781 5780 5778 5776 5775 5773 5771 5769 5767 5766 5764 5763 5762 5761 5760 5760 5760 5759 5758 5757 5756 5755 5754 5753 5752 5751 5749 5748 5746 5744 5743 5741 5740 5738 5736 5735 5733 5732 5731 5730
5778 5777 5775 5774 5772 5771 5769 5767 5765 5763 5761 5759 5758 5756 5755 5754 5753 5752 5751 5751 5751 5750 5749 5748 5747 5746 5745 5744 5742 5741 5740 5738 5736 5734 5733 5731 5729 5728 5726 5725 5724 5722 5721
5771 5770 5768 5766 5765 5763 5761 5760 5758 5756 5754 5752 5750 5749 5747 5747 5746 5745 5744 5743 5743 5742 5741 5740 5739 5737 5736 5735 5734 5733 5732 5730 5728 5726 5725 5723 5721 5720 5718 5717 5715 5714 5713
5764 5762 5760 5759 5757 5756 5754 5752 5750 5749 5746 5744 5743 5741 5740 5739 5738 5738 5737 5736 5735 5734 5733 5732 5731 5729 5728 5727 5726 5725 5724 5722 5721 5719 5717 5716 5714 5712 5710 5709 5707 5706 5705
5756 5754 5753 5751 5750 5748 5747 5745 5743 5742 5739 5738 5736 5735 5734 5732 5731 5730 5729 5728 5727 5726 5725 5724 5723 5722 5721 5719 5718 5717 5716 5715 5713 5712 5710 5708 5706 5704 5702 5701 5699 5698 5697
5747 5746 5745 5743 5742 5741 5740 5738 5736 5734 5733 5731 5729 5728 5727 5726 5725 5724 5722 5721 5720 5719 5718 5717 5716 5715 5713 5712 5711 5710 5709 5707 5706 5704 5702 5701 5699 5697 5695 5694 5692 5691 5689
5739 5738 5736 5735 5734 5733 5732 5731 5729 5727 5726 5724 5723 5722 5721 5720 5718 5717 5716 5714 5713 5712 5710 5710 5709 5707 5706 5705 5704 5703 5701 5700 5698 5697 5695 5693 5691 5690 5688 5686 5684 5683 5681
5731 5730 5729 5728 5727 5726 5724 5723 5722 5720 5719 5717 5716 5715 5714 5713 5712 5710 5709 5708 5706 5705 5704 5703 5702 5701 5699 5698 5697 5696 5694 5693 5691 5689 5687 5685 5683 5682 5680 5678 5676 5674 5673
5724 5723 5721 5720 5719 5718 5717 5715 5714 5713 5712 5710 5709 5708 5707 5706 5705 5704 5703 5701 5700 5699 5698 5697 5696 5695 5693 5692 5690 5689 5687 5686 5684 5682 5680 5678 5676 5674 5671 5670 5668 5666 5664
5717 5716 5714 5713 5711 5710 5709 5708 5707 5706 5705 5704 5702 5701 5700 5699 5699 5698 5697 5695 5694 5693 5692 5691 5690 5688 5687 5686 5684 5683 5681 5679 5677 5675 5672 5670 5668 5666 5663 5661 5659 5657 5656
5711 5709 5707 5706 5704 5703 5702 5701 5700 5699 5698 5697 5696 5695 5694 5693 5692 5691 5690 5689 5688 5687 5686 5685 5683 5682 5680 5679 5677 5676 5674 5672 5670 5668 5665 5663 5660 5658 5656 5653 5651 5649 5647
5704 5702 5701 5699 5697 5696 5695 5693 5692 5691 5691 5689 5689 5688 5687 5686 5686 5685 5684 5683 5682 5681 5679 5678 5677 5675 5674 5672 5671 5669 5668 5666 5663 5661 5659 5656 5654 5651 5648 5646 5644 5642 5640
5697 5695 5693 5692 5690 5689 5687 5686 5685 5684 5683 5682 5682 5681 5680 5680 5679 5678 5677 5676 5675 5674 5673 5672 5670 5669 5668 5667 5665 5663 5662 5660 5658 5655 5653 5650 5647 5644 5641 5639 5637 5635 5633